Hourly Data Report for May 15, 2022

MIRAMICHI RCS
NEW BRUNSWICK
Current Station Operator: ECCC - MSC

47°00'34.000" N
65°27'54.000" W
33.00 m
8100989
71744
ACQ

Download Data

Hourly Data (May 2022)
Hourly Data Report for May 15, 2022
TIME
LST
Temp Definition
°C
Dew Point Definition
°C
Rel Hum Definition
%
Precip. Amount Definition
mm

Wind Dir Definition
10's deg

Wind Spd Definition
km/h
Visibility Definition
km
Stn Press Definition
kPa
Hmdx Definition


Wind Chill Definition


Weather Definition


00:00 10.6 6.8 77 0.0 6 8   101.52     LegendNANA
01:00 10.4 6.4 76 0.0 6 9   101.51     LegendNANA
02:00 10.2 6.5 78 0.0 8 9   101.50     LegendNANA
03:00 10.2 6.7 79 0.0 4 8   101.44     LegendNANA
04:00 10.1 7.1 81 0.0 4 10   101.42     LegendNANA
05:00 10.5 8.0 84 0.0 6 14   101.42     LegendNANA
06:00 10.4 7.8 84 0.0 8 8   101.45     LegendNANA
07:00 11.1 7.5 78 0.0 7 13   101.45     LegendNANA
08:00 11.9 7.5 74 0.0 7 19   101.48     LegendNANA
09:00 12.5 7.9 74 0.0 6 19   101.48     LegendNANA
10:00 12.4 7.3 71 0.0 6 19   101.48     LegendNANA
11:00 11.7 6.4 70 0.0 5 19   101.50     LegendNANA
12:00 11.9 7.0 72 0.0 6 18   101.46     LegendNANA
13:00 11.3 7.1 76 0.0 5 19   101.41     LegendNANA
14:00 10.5 7.1 80 0.0 5 23   101.35     LegendNANA
15:00 10.3 7.2 81 0.0 5 16   101.30     LegendNANA
16:00 9.8 7.3 84 0.0 5 17   101.28     LegendNANA
17:00 9.8 7.1 84 0.0 5 19   101.24     LegendNANA
18:00 9.5 7.1 85 0.0 6 19   101.19     LegendNANA
19:00 8.9 7.0 88 0.0 5 17   101.18     LegendNANA
20:00 8.9 7.4 90 0.0 5 16   101.15     LegendNANA
21:00 9.0 7.5 90 0.0 6 16   101.09     LegendNANA
22:00 9.2 7.4 89 0.0 7 13   101.06     LegendNANA
23:00 9.2 7.5 89 0.0 5 8   101.00     LegendNANA

Notes on Data Quality.

Legend

  • E = Estimated
  • M = Missing
  • NA = Not Available*
  • [empty] = Indicates an unobserved value
Date modified: